LEMUR-2-STELLA (60533 NORAD) Tracking and Keplerian Element Data

This shows tracking and keplerian element data for the satellite.

Feedback or suggestion? Click here.




ElementValue
Catalog60533
NameLEMUR-2-STELLA
Epoch Orbit848
Epoch Day286.7563158
Epoch Year2024
RAAN1.2775
Inclination97.7395
Eccentricity0.0001152
Argument of Perigee187.6338
Mean Anonmoly172.4864
Mean Motion14.93684612
Decay Rate0.00020032
L11 60533U 24149BT 24286.75631580 .00020032 00000+0 18951-2 0 9996
L22 60533 97.7395 1.2775 0001152 187.6338 172.4864 14.93684612 8482



Live tracking and technical data element details for LEMUR-2-STELLA (NORAD 60533). LEMUR-2-STELLA can be tracked NOW for your location showing map with azimuth and elevation plus other details from your city location.







IsCatalogInMostPopularTable: catalog: 60533, numindb: 5
Update: records affected: 1



GetName: 60533 LEMUR-2-STELLA

Hit Count: updated at: Wed, 04 Dec 2024 19:49:26 GMT